Temperature
12 13 14 15 12 10 12 12 12 13 13 15 15 15 14 14 15 15 15 15 15 16 16 16 16 16 16 16 16 17 17 17 17 17 17 17 17 17 16 16 16 16 16 16 16 16 16 16 16
12 13 14 14 10 11 12 12 12 13 14 15 15 15 14 14 14 14 14 15 15 15 15 16 16 16 16 16 16 16 16 16 16 16 16 16 16 16 16 16 16 16 16 16 16 16 16 16 16
12 13 14 10 10 11 13 12 12 14 15 15 14 14 14 14 14 14 14 15 15 15 15 15 15 16 16 16 16 16 16 16 16 16 16 16 16 16 16 16 16 16 16 16 16 16 16 16 16
12 13 12 10 11 11 12 12 12 13 15 15 14 13 13 13 14 14 14 14 15 15 15 15 15 15 15 16 16 16 16 16 16 16 16 16 16 16 16 16 16 16 16 16 15 16 16 16 16
12 13 10 10 11 11 11 12 13 13 13 14 13 12 13 13 13 14 14 14 15 15 15 15 15 15 15 15 15 16 16 16 16 16 16 15 15 16 16 16 16 16 15 15 15 15 15 16 15
12 10 9 9 11 11 11 12 13 12 13 13 13 12 12 13 13 14 14 14 14 14 14 15 15 15 15 15 15 15 15 15 15 15 15 15 15 15 15 15 15 15 15 15 15 15 15 15 15
11 8 9 9 10 11 11 12 12 12 12 13 13 12 12 13 13 13 14 14 14 14 14 14 14 14 14 15 15 15 15 15 15 15 15 15 15 15 15 15 15 15 15 15 15 15 15 15 15
11 8 9 9 10 11 11 12 12 12 12 13 13 12 12 13 13 13 13 14 14 14 14 14 14 14 14 14 14 14 15 15 15 15 15 15 15 15 15 15 15 15 15 15 15 15 15 15 15
11 8 8 9 10 10 11 11 12 12 12 12 12 12 12 13 13 13 13 13 13 13 14 13 14 14 14 14 14 14 14 14 14 15 15 15 15 15 15 15 15 15 15 15 15 15 15 15 15
10 8 9 9 9 10 10 11 11 11 11 11 12 12 12 12 12 13 13 13 13 13 13 13 13 13 13 13 13 14 14 14 14 14 14 14 14 14 15 15 15 15 15 15 15 15 15 14 15
9 8 9 9 10 10 10 10 11 11 10 11 11 11 12 12 12 12 12 12 12 12 13 13 13 13 13 13 13 13 13 13 14 14 14 14 14 14 14 14 14 14 14 14 14 14 14 14 14
8 8 9 9 10 10 10 10 10 10 11 11 11 11 11 12 12 12 12 12 12 12 12 12 12 12 12 12 13 13 13 13 13 13 13 13 14 14 14 14 14 14 14 14 14 14 14 14 14
8 8 9 9 10 10 10 9 9 10 11 11 11 11 11 11 11 11 11 11 11 12 12 12 12 12 12 12 12 12 12 13 13 13 13 13 13 13 13 14 14 14 14 14 14 14 14 14 14
8 8 8 9 9 9 9 9 9 10 10 10 11 11 11 11 11 11 11 11 11 11 11 11 11 11 11 11 11 12 12 12 12 12 12 12 12 12 13 13 13 13 13 13 13 14 14 14 14
8 8 8 8 9 9 9 8 8 10 10 10 10 10 10 10 10 10 10 10 10 10 10 10 10 10 11 11 11 11 11 11 11 12 12 12 12 12 12 12 12 13 13 13 13 13 13 13 13
7 7 7 8 8 8 9 8 8 9 9 9 9 9 9 10 10 10 10 10 10 10 10 10 10 10 10 10 10 10 10 11 11 11 11 11 11 11 11 11 12 12 12 12 12 13 13 13 13
6 7 7 8 8 8 8 7 7 8 8 8 8 8 9 9 9 9 9 9 9 9 9 9 9 9 10 10 10 10 10 10 10 10 10 11 11 11 11 11 11 11 11 12 12 12 12 12 12
6 6 7 7 7 7 7 6 7 8 8 7 8 8 8 9 9 9 9 9 9 9 9 9 9 9 9 9 9 9 9 9 9 10 10 10 10 10 10 10 10 11 11 11 11 11 11 12 12
6 6 7 7 7 7 6 6 6 7 7 7 7 8 8 8 8 8 8 8 8 8 8 8 8 8 8 8 8 9 9 9 9 9 9 9 9 9 9 10 10 10 10 10 10 11 11 11 11
6 6 6 7 7 7 6 5 6 6 6 7 7 7 8 8 8 8 8 8 8 8 8 8 8 8 8 8 8 8 8 8 8 8 8 8 9 9 9 9 9 9 9 10 10 10 10 10 11
6 6 6 6 6 6 5 6 6 6 6 6 7 7 7 7 7 7 7 7 7 7 7 7 7 7 7 7 7 7 7 7 8 8 8 8 8 8 8 8 8 9 9 9 9 9 9 10 10
6 7 7 6 5 5 5 6 6 6 5 5 6 6 7 7 7 7 7 7 7 7 6 6 6 6 6 6 7 7 7 7 7 7 7 7 7 7 7 8 8 8 8 8 9 9 9 9 9
6 6 6 6 5 4 4 5 5 5 6 6 6 6 7 7 7 6 6 6 6 6 6 6 6 6 6 6 6 6 6 6 6 6 6 7 7 7 7 7 7 7 8 8 8 8 8 8 8
6 5 5 4 4 5 5 4 5 5 6 6 6 6 7 7 6 6 6 6 6 6 5 5 5 6 6 6 6 5 6 6 6 6 6 6 6 6 7 7 7 7 7 7 7 7 8 8 8
6 5 4 5 4 5 5 4 5 6 6 6 6 6 6 6 6 6 6 5 5 5 5 5 5 5 5 5 5 5 5 5 5 5 5 5 6 6 6 6 6 6 6 7 7 7 7 7 7
5 5 5 6 5 4 4 4 5 6 5 6 6 6 6 6 6 6 5 5 5 5 5 4 4 5 5 5 5 5 5 5 5 5 5 5 5 5 5 6 6 6 6 6 6 6 6 6 6
5 4 5 4 4 4 4 4 5 5 5 5 5 5 6 6 6 5 5 5 5 4 4 4 4 4 4 5 5 5 4 4 4 5 5 4 5 5 5 5 5 5 5 5 5 5 6 6 6
6 4 3 4 5 5 5 5 5 6 6 5 4 5 5 6 6 6 5 5 5 4 4 4 4 4 4 4 4 4 4 4 4 4 4 4 4 4 4 5 5 5 5 5 5 5 5 5 5
5 5 4 3 4 4 5 6 5 5 5 4 4 5 5 6 6 6 5 5 4 4 4 4 4 4 4 4 4 4 4 4 4 4 4 4 4 4 4 4 4 5 5 5 5 5 5 5 5
5 5 4 4 4 3 3 5 6 5 4 4 5 5 5 6 6 5 5 5 5 4 4 4 4 4 4 3 3 4 4 4 4 4 4 4 4 4 4 4 4 4 4 4 4 4 4 4 4
Wind_Speed
4 3 3 4 5 4 3 4 3 2 2 1 2 5 7 5 3 4 2 3 2 1 2 3 5 5 6 6 6 6 6 6 6 6 7 7 7 8 8 8 8 8 8 8 8 9 9 10 10
1 2 5 5 5 3 5 4 4 4 3 2 3 4 5 3 2 3 2 4 3 3 4 4 6 6 6 5 5 5 5 4 4 5 5 6 6 7 7 7 7 7 8 8 7 8 9 10 10
2 4 4 5 4 7 5 4 5 1 0 2 3 4 4 2 1 1 2 2 4 6 6 5 6 6 5 5 4 4 3 3 3 3 3 4 5 6 6 6 6 7 7 7 7 8 9 10 10
3 4 4 3 5 4 3 2 2 2 2 3 4 4 2 2 1 0 2 4 5 6 7 6 6 6 5 4 3 2 2 1 1 1 2 3 3 4 5 5 6 7 7 7 7 8 10 10 10
4 4 3 2 4 2 2 2 1 2 2 2 4 5 2 4 3 3 4 5 5 5 7 8 8 6 6 4 3 2 1 1 0 1 1 2 3 4 4 5 5 6 7 8 8 8 9 10 10
4 4 4 5 4 2 2 2 1 2 2 3 4 4 2 3 3 3 4 4 4 4 6 7 8 8 7 6 5 3 2 2 2 2 2 2 3 3 4 5 5 7 7 8 9 9 9 10 10
4 4 5 6 4 2 1 1 2 2 3 1 3 4 1 2 2 3 4 5 5 6 6 7 7 7 7 6 5 5 4 3 3 3 3 3 3 3 4 5 6 7 7 7 8 9 10 10 10
4 4 4 4 5 3 1 1 1 2 2 1 3 5 3 2 1 3 4 5 5 6 6 6 7 7 6 6 6 6 5 5 5 4 4 4 4 4 4 5 6 7 8 8 8 9 10 10 10
3 3 4 5 5 3 0 2 2 1 3 2 2 2 2 3 3 4 5 5 5 6 6 6 6 7 7 6 6 6 6 6 5 5 5 4 4 4 4 5 6 7 8 9 9 8 8 9 10
4 3 4 2 3 3 1 2 1 3 3 2 3 3 3 3 4 4 3 4 5 6 6 5 5 6 6 6 6 6 5 6 5 5 5 4 4 4 4 5 6 7 8 9 9 9 8 7 7
3 4 3 1 1 2 2 1 1 4 1 3 4 2 1 3 3 3 2 2 2 3 4 5 5 5 5 5 5 4 5 5 5 5 5 4 3 3 3 2 4 5 6 6 7 7 6 6 6
3 1 1 0 0 1 2 1 2 1 3 2 3 3 2 2 2 1 1 2 3 4 5 5 5 5 5 5 4 4 3 3 3 5 5 3 1 1 1 1 3 3 4 4 4 4 5 6 7
3 1 0 1 1 0 1 1 0 1 2 1 2 2 2 2 1 1 1 2 3 4 5 5 5 4 4 4 4 3 3 3 4 5 5 4 2 2 2 2 2 3 4 3 3 4 5 5 5
3 2 1 2 1 1 1 1 0 3 0 2 2 1 1 1 1 2 3 3 4 4 5 5 5 4 4 3 3 3 4 4 4 4 5 5 3 3 3 3 3 3 4 4 4 5 5 5 4
3 3 3 2 1 1 2 3 3 2 2 2 1 1 1 1 1 2 3 3 4 5 5 6 6 5 4 4 4 4 4 4 3 4 5 4 4 3 3 3 3 3 4 4 4 4 4 4 5
3 3 1 3 1 1 3 4 4 1 3 1 1 1 1 2 2 2 3 4 4 5 6 6 6 6 5 4 4 4 4 3 3 4 4 4 4 3 3 3 3 4 4 3 4 4 4 5 5
4 2 1 2 1 1 2 5 4 1 1 2 2 2 3 3 3 3 3 4 4 4 5 6 6 6 6 5 4 4 4 3 4 4 4 4 4 3 2 3 3 3 3 3 4 4 4 5 5
2 2 1 2 2 1 2 6 6 3 2 4 3 3 3 3 4 3 3 4 4 5 5 5 6 6 6 4 4 3 3 3 3 3 4 4 3 3 2 2 2 2 2 3 3 4 4 4 4
4 3 1 1 1 1 3 7 9 5 3 4 4 4 4 4 3 2 3 4 5 6 6 7 6 7 5 4 3 3 3 3 3 3 4 4 3 3 2 2 2 2 3 3 4 4 4 4 3
3 3 1 2 2 0 3 7 7 5 4 4 4 4 4 2 2 3 3 4 5 5 6 6 6 7 6 4 4 3 3 3 3 3 4 4 4 3 2 2 2 2 2 3 3 3 3 3 3
2 2 1 1 3 2 3 6 4 2 1 2 3 3 3 3 2 3 4 4 5 6 6 6 7 7 6 6 4 3 3 3 3 3 3 4 4 3 2 2 2 2 2 3 3 3 4 4 3
0 1 2 1 2 3 2 4 6 3 4 4 5 4 3 3 2 2 3 4 5 5 6 6 6 6 6 6 4 3 3 4 4 4 4 4 4 3 3 2 2 2 2 3 3 3 3 4 4
2 2 2 2 2 2 0 2 7 2 4 5 5 5 4 3 2 3 3 3 4 5 5 5 6 6 6 6 4 3 3 4 4 4 4 4 3 3 3 2 2 2 2 3 3 2 3 3 4
2 4 4 4 3 2 3 4 7 4 6 5 4 4 5 3 3 3 3 2 3 4 4 5 5 6 6 6 5 4 4 5 5 5 4 4 3 3 3 3 2 2 3 3 3 3 3 3 4
4 4 3 3 2 5 2 4 9 6 5 6 6 6 5 4 3 3 3 3 4 5 5 5 5 6 6 6 6 5 5 5 5 5 5 5 4 3 4 3 3 3 3 3 3 3 3 3 4
1 4 4 3 4 4 2 6 7 5 4 4 4 5 4 4 4 4 4 4 4 4 4 5 5 6 6 6 6 6 5 4 4 4 4 5 4 4 4 3 3 3 3 3 3 3 4 3 4
3 2 3 3 1 3 5 7 7 2 3 3 3 3 4 4 4 4 4 4 4 4 4 4 5 5 6 6 6 6 6 5 5 5 4 4 4 4 3 3 3 3 3 3 3 3 3 3 3
2 4 3 2 1 4 6 5 5 4 5 4 5 5 5 4 4 4 4 4 3 3 4 4 4 4 5 5 5 5 6 6 5 5 5 5 5 4 4 4 3 3 3 3 3 3 3 3 3
3 2 3 3 3 3 4 7 5 5 5 6 7 6 6 5 5 4 4 3 3 3 3 3 4 4 5 5 5 5 6 5 5 5 5 5 4 4 4 3 3 3 3 3 2 3 3 3 3
4 5 5 3 4 4 3 7 4 5 5 6 7 6 5 5 4 4 4 3 2 3 3 3 4 4 5 5 5 5 5 5 5 5 5 5 4 4 3 3 3 3 3 3 3 3 3 3 4
Wind_Direction
9 56 71 59 65 71 215 230 211 188 195 200 134 119 125 125 139 152 239 345 357 23 25 74 86 96 99 97 100 108 113 114 120 129 137 141 145 148 152 153 155 153 151 147 144 141 137 132 129
36 72 60 68 109 162 242 225 198 198 188 124 85 91 90 85 50 86 354 345 24 45 44 67 79 87 91 91 92 98 108 116 123 130 142 151 157 159 161 163 160 160 158 157 155 148 145 142 139
91 59 90 95 145 184 204 203 198 214 41 113 84 68 101 99 31 63 340 2 50 44 41 55 73 79 85 83 83 85 94 101 120 144 153 161 168 169 167 173 172 166 162 165 164 159 157 153 151
86 57 65 105 196 213 206 199 192 137 46 57 108 81 62 10 336 348 15 63 66 42 38 48 62 62 67 72 70 72 78 90 114 154 194 193 188 190 184 179 176 175 173 174 173 170 168 163 162
64 90 97 168 218 238 246 267 173 119 91 53 103 105 64 350 16 50 60 69 70 48 38 45 48 44 44 45 43 34 22 0 317 271 257 236 221 213 206 197 185 181 185 188 186 180 176 174 173
71 84 132 194 208 250 275 285 116 92 91 79 96 107 131 353 31 36 61 63 63 57 37 39 40 38 33 27 22 12 351 326 306 293 278 275 259 241 230 215 206 197 195 198 196 193 189 185 184
118 119 162 171 172 214 288 6 119 114 98 106 124 113 145 339 13 42 55 56 47 41 36 28 25 25 22 14 5 359 351 331 309 294 285 283 279 265 250 231 217 211 207 207 206 204 201 199 195
126 116 134 169 164 201 313 50 99 117 137 47 114 135 181 224 86 60 49 44 37 34 29 22 18 16 12 2 354 350 343 334 324 304 285 275 272 265 259 244 230 223 217 212 212 213 211 207 203
95 94 178 189 174 181 93 78 16 29 94 39 42 144 174 130 91 66 47 28 21 19 14 14 11 8 4 358 352 346 337 331 323 311 291 275 267 259 255 250 242 235 227 219 215 216 216 212 207
95 158 200 202 179 160 116 98 74 67 60 56 47 37 64 79 84 81 63 29 12 359 355 3 1 359 355 351 349 341 335 327 321 311 299 282 270 259 254 256 250 243 234 227 220 220 218 211 203
110 160 176 222 160 130 110 62 22 119 126 190 172 165 99 75 70 73 52 27 351 338 343 345 346 348 350 347 342 338 332 325 319 309 298 288 274 267 259 256 259 251 240 229 225 221 214 205 202
105 90 131 193 332 63 108 92 42 148 205 197 173 158 129 104 79 74 32 351 343 346 337 334 338 342 342 340 335 328 331 326 318 303 293 288 284 266 259 244 249 248 236 226 222 217 216 213 211
104 110 70 25 38 44 80 74 87 275 259 26 88 99 116 106 64 7 343 337 339 337 331 329 331 332 336 338 332 334 324 315 305 300 289 273 262 251 250 249 241 243 240 224 222 222 223 222 219
146 115 72 20 30 14 93 343 57 271 58 77 84 86 57 70 41 14 359 344 339 331 325 324 327 327 331 327 319 316 318 310 307 303 289 271 256 252 248 246 243 242 238 234 228 227 225 226 223
107 91 35 8 36 12 72 335 259 259 93 81 52 9 0 347 359 346 329 326 323 321 322 324 324 332 328 318 314 321 316 315 314 306 295 283 267 255 247 245 246 244 238 236 234 232 228 227 226
70 79 53 334 55 33 95 276 291 14 118 185 270 290 308 321 324 321 324 326 325 326 327 325 332 332 325 320 315 318 321 323 320 315 312 301 287 272 258 245 246 249 240 230 231 226 229 232 228
48 105 174 321 15 80 144 250 280 355 131 243 260 274 283 306 323 326 336 336 333 333 331 331 333 332 327 324 322 317 321 323 325 325 325 315 306 295 280 259 258 249 238 235 237 235 224 234 233
163 143 167 258 330 75 212 253 276 288 226 248 263 275 280 295 302 320 349 352 352 348 343 339 338 336 332 330 325 321 325 326 335 334 329 322 321 316 309 278 282 272 243 240 235 241 234 233 235
137 128 149 280 335 8 249 265 273 273 250 253 263 272 274 277 293 341 357 357 354 352 353 346 342 339 342 336 329 322 319 321 325 329 336 333 328 323 314 278 276 270 250 245 240 241 245 241 235
108 113 25 337 13 4 293 282 270 254 233 232 240 250 255 278 325 339 350 358 353 344 344 344 343 338 337 327 312 292 289 296 303 317 335 339 337 335 305 266 253 257 253 252 246 241 245 243 218
76 149 182 287 349 26 339 310 292 289 261 255 245 236 238 231 265 311 333 339 341 341 339 339 336 335 335 329 321 318 321 317 319 326 325 335 338 330 315 286 263 257 242 248 246 235 233 242 233
118 165 152 99 35 322 30 298 287 276 283 257 251 248 246 248 255 293 316 329 327 324 330 334 334 336 334 334 330 321 315 302 301 308 307 317 327 321 309 295 277 263 256 256 251 242 236 236 239
166 90 98 94 109 338 325 216 283 300 270 262 254 251 251 245 245 266 282 297 313 323 330 333 336 337 337 337 332 321 309 298 300 310 315 318 317 316 313 300 276 260 257 256 253 250 240 237 237
110 66 56 52 64 297 228 192 276 245 232 256 259 258 249 242 251 265 286 309 321 327 330 334 341 337 337 341 338 324 307 304 308 312 314 313 310 308 318 305 289 271 262 257 252 242 240 242 239
73 82 32 360 352 257 203 210 251 246 228 228 245 252 243 233 239 266 289 304 309 315 324 330 336 332 335 340 338 329 317 306 298 295 297 298 299 301 303 297 287 276 270 268 257 240 240 240 239
113 128 152 209 243 283 258 238 252 247 249 242 242 244 236 237 245 254 263 271 284 297 312 323 327 326 331 334 331 328 322 314 310 303 294 293 288 287 290 289 289 285 280 276 264 247 243 241 240
130 147 158 140 237 278 268 276 293 242 261 255 253 250 244 244 246 254 264 269 278 290 300 309 316 319 325 326 325 325 324 320 315 313 308 299 292 290 297 292 287 285 275 267 258 249 243 236 236
145 147 114 135 220 279 290 273 257 268 267 271 262 255 254 252 251 258 265 266 273 281 295 305 305 310 316 322 321 323 320 317 314 312 311 308 304 299 298 299 289 282 278 270 258 262 250 233 237
146 151 156 155 176 203 285 277 230 223 241 254 259 252 249 250 250 257 267 266 269 282 291 300 307 314 319 321 318 319 317 317 318 315 312 310 307 303 294 295 291 289 290 285 270 262 257 248 247
188 189 164 176 225 204 236 271 270 225 248 251 258 257 248 249 254 257 260 263 272 282 292 299 306 310 311 315 317 318 319 321 324 321 317 317 311 308 306 306 300 296 293 285 274 270 263 245 242
Height
1494 1496 1500 1503 1509 1520 1520 1515 1511 1510 1509 1508 1508 1509 1511 1514 1518 1523 1521 1519 1520 1521 1522 1523 1524 1525 1526 1527 1528 1529 1530 1531 1532 1533 1534 1534 1535 1536 1537 1537 1538 1539 1539 1540 1541 1541 1542 1543 1543
1495 1497 1501 1503 1513 1523 1518 1512 1509 1507 1506 1507 1508 1509 1511 1514 1516 1517 1518 1519 1520 1521 1522 1523 1524 1525 1526 1527 1528 1529 1530 1531 1532 1532 1533 1534 1535 1536 1536 1537 1538 1538 1539 1540 1541 1541 1542 1543 1543
1495 1498 1501 1505 1513 1516 1510 1507 1506 1505 1505 1506 1508 1510 1512 1514 1515 1517 1518 1519 1520 1521 1522 1523 1524 1525 1526 1527 1528 1529 1529 1530 1531 1532 1533 1533 1534 1535 1536 1536 1537 1538 1539 1540 1540 1541 1542 1543 1543
1496 1499 1501 1508 1510 1508 1505 1504 1503 1504 1505 1506 1507 1511 1513 1515 1516 1517 1518 1519 1520 1521 1521 1523 1524 1524 1525 1526 1527 1528 1528 1529 1530 1531 1532 1532 1533 1534 1535 1536 1536 1537 1538 1539 1540 1540 1541 1542 1543
1495 1497 1505 1510 1508 1506 1504 1503 1503 1503 1504 1506 1507 1510 1513 1515 1516 1517 1518 1519 1520 1520 1521 1522 1523 1524 1524 1525 1526 1526 1527 1528 1529 1529 1530 1531 1532 1533 1534 1534 1535 1536 1537 1538 1539 1540 1540 1541 1542
1496 1497 1508 1511 1507 1505 1503 1502 1503 1504 1505 1506 1508 1510 1513 1515 1516 1517 1518 1518 1519 1520 1521 1521 1522 1522 1523 1523 1524 1525 1525 1526 1527 1527 1528 1529 1530 1531 1532 1533 1534 1535 1536 1537 1538 1538 1539 1540 1541
1495 1500 1505 1507 1507 1505 1503 1503 1503 1504 1505 1507 1508 1511 1513 1514 1516 1517 1517 1518 1518 1519 1520 1520 1520 1521 1521 1521 1522 1523 1523 1524 1524 1525 1526 1527 1528 1529 1530 1531 1532 1533 1534 1535 1536 1537 1538 1539 1540
1494 1499 1504 1507 1505 1504 1503 1503 1503 1504 1506 1508 1509 1510 1512 1514 1515 1516 1517 1517 1517 1518 1518 1518 1518 1519 1519 1519 1520 1520 1520 1521 1522 1523 1523 1524 1525 1526 1527 1528 1529 1530 1532 1533 1534 1535 1536 1537 1538
1494 1502 1505 1504 1504 1503 1502 1503 1504 1505 1505 1507 1508 1510 1511 1513 1514 1514 1515 1515 1516 1516 1516 1516 1516 1516 1516 1516 1517 1517 1517 1518 1519 1519 1520 1521 1522 1523 1524 1525 1526 1528 1529 1530 1531 1532 1534 1535 1536
1494 1503 1502 1501 1501 1501 1502 1503 1504 1505 1505 1507 1508 1509 1511 1512 1512 1513 1513 1513 1514 1514 1514 1514 1514 1514 1514 1514 1514 1514 1514 1514 1515 1516 1517 1517 1519 1520 1521 1522 1523 1524 1526 1527 1528 1529 1531 1532 1533
1495 1500 1500 1500 1500 1501 1502 1503 1504 1504 1506 1507 1507 1508 1510 1511 1511 1511 1512 1512 1512 1512 1512 1512 1511 1511 1511 1510 1510 1510 1510 1511 1511 1512 1513 1513 1514 1515 1517 1518 1519 1520 1522 1523 1524 1526 1527 1528 1529
1496 1499 1499 1500 1501 1501 1502 1503 1504 1504 1506 1506 1507 1508 1509 1509 1510 1510 1510 1510 1510 1510 1509 1509 1509 1508 1507 1507 1507 1507 1507 1507 1507 1508 1509 1509 1510 1511 1512 1513 1515 1516 1517 1519 1520 1522 1523 1524 1526
1497 1499 1500 1501 1501 1502 1502 1503 1504 1504 1505 1506 1507 1507 1508 1508 1508 1509 1509 1508 1508 1507 1507 1506 1505 1505 1504 1504 1503 1503 1503 1503 1503 1504 1504 1505 1505 1506 1507 1509 1510 1511 1513 1514 1516 1517 1519 1520 1522
1497 1499 1500 1501 1501 1502 1503 1504 1504 1504 1505 1505 1505 1506 1507 1507 1507 1507 1507 1506 1505 1505 1504 1503 1502 1502 1501 1500 1499 1499 1499 1499 1499 1499 1500 1500 1501 1501 1502 1503 1505 1507 1508 1510 1511 1512 1514 1515 1517
1497 1500 1501 1501 1501 1502 1503 1505 1504 1503 1504 1504 1505 1505 1505 1506 1506 1506 1505 1505 1504 1503 1502 1501 1500 1499 1498 1497 1496 1495 1495 1495 1495 1495 1496 1496 1496 1497 1498 1498 1500 1501 1503 1505 1506 1507 1509 1510 1511
1499 1502 1505 1503 1502 1503 1507 1508 1504 1503 1503 1503 1504 1504 1504 1504 1505 1504 1504 1503 1502 1500 1499 1498 1497 1496 1495 1494 1493 1492 1491 1491 1491 1491 1491 1491 1492 1492 1493 1494 1495 1496 1498 1499 1501 1502 1503 1505 1506
1504 1506 1506 1505 1503 1504 1506 1507 1504 1503 1502 1502 1502 1502 1502 1502 1502 1502 1501 1500 1499 1498 1496 1495 1494 1493 1491 1490 1489 1488 1488 1487 1487 1486 1487 1487 1487 1488 1488 1489 1490 1491 1492 1494 1495 1496 1498 1499 1500
1507 1507 1507 1507 1505 1505 1507 1506 1502 1502 1502 1501 1501 1500 1500 1500 1500 1500 1499 1498 1497 1495 1494 1492 1491 1490 1488 1487 1486 1485 1484 1483 1483 1482 1482 1482 1482 1483 1483 1484 1485 1486 1487 1488 1489 1491 1492 1493 1495
1505 1507 1508 1507 1506 1507 1507 1505 1501 1499 1500 1499 1498 1498 1498 1498 1498 1498 1497 1496 1495 1493 1491 1490 1488 1486 1485 1483 1482 1480 1479 1479 1478 1478 1478 1478 1478 1478 1478 1479 1479 1480 1481 1482 1484 1485 1487 1488 1489
1505 1508 1509 1508 1506 1507 1507 1504 1498 1497 1496 1496 1496 1495 1495 1495 1495 1495 1495 1493 1492 1491 1489 1487 1485 1484 1482 1480 1478 1477 1476 1475 1474 1474 1473 1473 1473 1473 1474 1474 1474 1475 1476 1477 1478 1480 1481 1482 1484
1506 1509 1509 1509 1509 1508 1509 1503 1498 1495 1494 1494 1494 1493 1493 1493 1493 1493 1492 1491 1490 1488 1487 1485 1483 1481 1479 1477 1475 1474 1472 1471 1470 1469 1469 1468 1468 1468 1469 1469 1469 1470 1471 1471 1472 1474 1475 1476 1478
1508 1507 1508 1509 1513 1515 1513 1512 1499 1496 1494 1493 1492 1491 1491 1491 1491 1491 1490 1489 1488 1486 1484 1483 1481 1479 1477 1475 1472 1471 1469 1467 1466 1465 1464 1464 1464 1463 1463 1464 1464 1465 1465 1466 1467 1468 1470 1471 1472
1507 1507 1509 1511 1514 1518 1516 1517 1503 1497 1494 1491 1489 1489 1489 1489 1490 1489 1488 1487 1486 1484 1482 1480 1478 1476 1474 1472 1470 1468 1466 1464 1463 1462 1460 1459 1459 1459 1458 1459 1459 1459 1460 1461 1462 1463 1464 1466 1467
1507 1510 1512 1515 1517 1518 1514 1517 1505 1497 1491 1488 1487 1487 1487 1487 1488 1487 1486 1485 1484 1482 1480 1478 1476 1474 1472 1470 1468 1465 1463 1461 1460 1458 1457 1456 1454 1454 1454 1454 1454 1454 1455 1456 1456 1458 1459 1460 1462
1509 1515 1522 1519 1524 1518 1513 1514 1502 1488 1486 1486 1485 1485 1485 1485 1485 1485 1484 1483 1482 1480 1478 1476 1474 1472 1470 1468 1466 1463 1461 1459 1457 1455 1453 1452 1450 1449 1449 1449 1449 1450 1450 1451 1452 1453 1454 1455 1456
1511 1514 1521 1520 1522 1518 1512 1510 1493 1484 1483 1483 1483 1483 1483 1483 1483 1483 1482 1481 1480 1478 1476 1474 1472 1470 1468 1466 1463 1461 1459 1457 1454 1452 1450 1448 1447 1446 1445 1445 1445 1446 1446 1447 1447 1448 1449 1450 1451
1511 1515 1516 1522 1524 1522 1512 1503 1489 1482 1481 1481 1481 1481 1481 1481 1481 1481 1480 1479 1478 1476 1474 1472 1470 1468 1466 1464 1461 1459 1456 1454 1452 1449 1447 1445 1444 1443 1442 1442 1442 1442 1442 1443 1443 1443 1444 1445 1446
1510 1513 1519 1521 1517 1513 1506 1502 1493 1482 1480 1480 1479 1479 1478 1479 1479 1478 1478 1477 1476 1474 1472 1470 1468 1466 1464 1461 1459 1457 1454 1452 1449 1447 1445 1443 1441 1440 1439 1438 1438 1438 1438 1439 1439 1439 1440 1441 1441
1512 1513 1514 1519 1519 1518 1512 1497 1482 1480 1478 1479 1477 1476 1476 1476 1476 1476 1475 1475 1473 1472 1470 1468 1466 1464 1462 1459 1457 1454 1452 1450 1447 1445 1442 1440 1439 1438 1436 1436 1435 1435 1435 1435 1435 1435 1435 1436 1436
1507 1509 1513 1516 1516 1520 1519 1500 1478 1477 1476 1476 1475 1474 1474 1474 1474 1474 1473 1472 1471 1469 1468 1466 1464 1462 1460 1457 1454 1452 1450 1447 1445 1443 1441 1439 1437 1436 1434 1433 1433 1432 1432 1431 1431 1431 1431 1431 1431